H1 CPF 2 NER 2025 8 7 9 219 01 glonass129 H2 1106402 9129 37868 2025 8 7 0 0 0 2025 8 10 23 45 0 900 1 1 0 0 0 1 H9 10 0 60894 0.00000 0 9479609.690 -20788474.932 11323329.295 10 0 60894 900.00000 0 10066793.976 -21862439.689 8405005.209 10 0 60894 1800.00000 0 10377912.115 -22663541.312 5323138.711 10 0 60894 2700.00000 0 10447029.783 -23145273.098 2137627.608 10 0 60894 3600.00000 0 10317355.896 -23271068.165 -1089528.159 10 0 60894 4500.00000 0 10039182.180 -23015941.365 -4295442.054 10 0 60894 5400.00000 0 9667525.910 -22367662.650 -7417580.005 10 0 60894 6300.00000 0 9259576.689 -21327409.738 -10394997.328 10 0 60894 7200.00000 0 8872057.088 -19909870.140 -13169547.444 10 0 60894 8100.00000 0 8558611.114 -18142786.342 -15687036.785 10 0 60894 9000.00000 0 8367333.504 -16065962.078 -17898301.322 10 0 60894 9900.00000 0 8338546.843 -13729770.970 -19760181.896 10 0 60894 10800.00000 0 8502922.743 -11193230.395 -21236377.905 10 0 60894 11700.00000 0 8880028.229 -8521722.092 -22298161.768 10 0 60894 12600.00000 0 9477359.920 -5784456.116 -22924939.772 10 0 60894 13500.00000 0 10289907.268 -3051785.418 -23104648.473 10 0 60894 14400.00000 0 11300263.184 -392484.336 -22833979.488 10 0 60894 15300.00000 0 12479276.728 2128894.693 -22118429.204 10 0 60894 16200.00000 0 13787219.312 4454475.782 -20972173.662 10 0 60894 17100.00000 0 15175414.023 6535223.807 -19417772.427 10 0 60894 18000.00000 0 16588258.135 8332729.143 -17485708.669 10 0 60894 18900.00000 0 17965552.479 9820540.446 -15213775.858 10 0 60894 19800.00000 0 19245038.706 10984992.435 -12646324.356 10 0 60894 20700.00000 0 20365037.124 11825497.034 -9833383.809 10 0 60894 21600.00000 0 21267074.007 12354288.990 -6829679.438 10 0 60894 22500.00000 0 21898388.245 12595639.838 -3693562.101 10 0 60894 23400.00000 0 22214212.657 12584576.220 -485873.503 10 0 60894 24300.00000 0 22179735.224 12365158.915 2731231.256 10 0 60894 25200.00000 0 21771659.165 11988396.883 5895481.081 10 0 60894 26100.00000 0 20979297.749 11509885.251 8945683.477 10 0 60894 27000.00000 0 19805159.184 10987267.117 11822894.043 10 0 60894 27900.00000 0 18264998.054 10477625.698 14471539.437 10 0 60894 28800.00000 0 16387331.637 10034915.751 16840473.448 10 0 60894 29700.00000 0 14212441.251 9707541.037 18883947.454 10 0 60894 30600.00000 0 11790899.554 9536178.255 20562478.159 10 0 60894 31500.00000 0 9181683.794 9551937.550 21843597.502 10 0 60894 32400.00000 0 6449951.571 9774935.761 22702471.651 10 0 60894 33300.00000 0 3664569.136 10213341.820 23122378.221 10 0 60894 34200.00000 0 895492.249 10862934.494 23095033.044 10 0 60894 35100.00000 0 -1788894.389 11707191.902 22620760.243 10 0 60894 36000.00000 0 -4324371.215 12717910.708 21708501.692 10 0 60894 36900.00000 0 -6653305.754 13856331.175 20375664.536 10 0 60894 37800.00000 0 -8726803.336 15074723.479 18647808.033 10 0 60894 38700.00000 0 -10506497.974 16318371.375 16558173.703 10 0 60894 39600.00000 0 -11965908.930 17527872.355 14147065.663 10 0 60894 40500.00000 0 -13091305.900 18641659.627 11461090.916 10 0 60894 41400.00000 0 -13882045.717 19598641.067 8552272.300 10 0 60894 42300.00000 0 -14350365.273 20340844.376 5477049.776 10 0 60894 43200.00000 0 -14520638.151 20815956.430 2295188.407 10 0 60894 44100.00000 0 -14428125.297 20979648.265 -931386.077 10 0 60894 45000.00000 0 -14117271.856 20797585.393 -4139801.089 10 0 60894 45900.00000 0 -13639622.139 20247035.984 -7267475.763 10 0 60894 46800.00000 0 -13051441.573 19318006.135 -10253358.638 10 0 60894 47700.00000 0 -12411147.562 18013851.625 -13039138.398 10 0 60894 48600.00000 0 -11776659.855 16351337.948 -15570402.003 10 0 60894 49500.00000 0 -11202784.728 14360144.330 -17797715.614 10 0 60894 50400.00000 0 -10738745.961 12081831.483 -19677605.361 10 0 60894 51300.00000 0 -10425969.169 9568316.103 -21173417.406 10 0 60894 52200.00000 0 -10296214.899 6879916.362 -22256039.556 10 0 60894 53100.00000 0 -10370140.597 4083051.034 -22904469.875 10 0 60894 54000.00000 0 -10656352.723 1247689.566 -23106221.279 10 0 60894 54900.00000 0 -11150988.914 -1555339.368 -22857554.783 10 0 60894 55800.00000 0 -11837847.127 -4257067.569 -22163537.724 10 0 60894 56700.00000 0 -12689055.102 -6793021.425 -21037927.084 10 0 60894 57600.00000 0 -13666250.451 -9105660.798 -19502881.526 10 0 60894 58500.00000 0 -14722219.946 -11146521.739 -17588509.240 10 0 60894 59400.00000 0 -15802927.377 -12877975.260 -15332261.841 10 0 60894 60300.00000 0 -16849843.117 -14274530.896 -12778187.488 10 0 60894 61200.00000 0 -17802476.239 -15323633.291 -9976058.989 10 0 60894 62100.00000 0 -18601001.897 -16025921.534 -6980394.884 10 0 60894 63000.00000 0 -19188873.209 -16394943.574 -3849393.320 10 0 60894 63900.00000 0 -19515308.006 -16456340.729 -643799.990 10 0 60894 64800.00000 0 -19537546.514 -16246539.264 2574267.677 10 0 60894 65700.00000 0 -19222786.094 -15811006.240 5742517.408 10 0 60894 66600.00000 0 -18549712.888 -15202144.458 8799677.261 10 0 60894 67500.00000 0 -17509567.248 -14476915.855 11686666.818 10 0 60894 68400.00000 0 -16106699.228 -13694293.318 14347722.846 10 0 60894 69300.00000 0 -14358591.447 -12912647.462 16731459.083 10 0 60894 70200.00000 0 -12295348.426 -12187177.022 18791841.272 10 0 60894 71100.00000 0 -9958673.116 -11567489.322 20489060.335 10 0 60894 72000.00000 0 -7400372.072 -11095430.801 21790288.405 10 0 60894 72900.00000 0 -4680449.621 -10803257.179 22670304.579 10 0 60894 73800.00000 0 -1864867.874 -10712218.936 23111979.380 10 0 60894 74700.00000 0 976937.064 -10831620.882 23106609.168 10 0 60894 75600.00000 0 3774682.456 -11158395.444 22654094.079 10 0 60894 76500.00000 0 6459903.583 -11677208.428 21762955.501 10 0 60894 77400.00000 0 8968547.451 -12361094.393 20450191.576 10 0 60894 78300.00000 0 11243389.693 -13172597.010 18740971.867 10 0 60894 79200.00000 0 13236175.426 -14065368.906 16668175.050 10 0 60894 80100.00000 0 14909395.303 -14986166.057 14271776.350 10 0 60894 81000.00000 0 16237622.530 -15877154.893 11598094.348 10 0 60894 81900.00000 0 17208354.129 -16678436.484 8698909.758 10 0 60894 82800.00000 0 17822320.030 -17330682.092 5630471.688 10 0 60894 83700.00000 0 18093245.651 -17777768.742 2452409.656 10 0 60894 84600.00000 0 18047076.722 -17969302.494 -773427.878 10 0 60894 85500.00000 0 17720698.055 -17862920.919 -3984185.515 10 0 60895 0.00000 0 17160199.948 -17426275.068 -7117238.617 10 0 60895 900.00000 0 16418765.365 -16638604.024 -10111432.781 10 0 60895 1800.00000 0 15554268.822 -15491833.271 -12908294.820 10 0 60895 2700.00000 0 14626689.010 -13991147.015 -15453195.206 10 0 60895 3600.00000 0 13695447.130 -12155008.552 -17696433.031 10 0 60895 4500.00000 0 12816785.356 -10014626.021 -19594222.170 10 0 60895 5400.00000 0 12041298.320 -7612885.093 -21109557.671 10 0 60895 6300.00000 0 11411723.674 -5002793.125 -22212944.469 10 0 60895 7200.00000 0 10961086.327 -2245500.382 -22882973.727 10 0 60895 8100.00000 0 10711275.330 592018.123 -23106735.620 10 0 60895 9000.00000 0 10672113.377 3439522.326 -22880061.011 10 0 60895 9900.00000 0 10840957.475 6226200.541 -22207588.238 10 0 60895 10800.00000 0 11202846.308 8883383.598 -21102654.875 10 0 60895 11700.00000 0 11731186.358 11347166.347 -19587017.967 10 0 60895 12600.00000 0 12388945.908 13560827.566 -17690409.658 10 0 60895 13500.00000 0 13130304.578 15476948.382 -15449938.299 10 0 60895 14400.00000 0 13902686.999 17059142.555 -12909348.087 10 0 60895 15300.00000 0 14649093.314 18283328.539 -10118152.883 10 0 60895 16200.00000 0 15310627.140 19138492.914 -7130662.102 10 0 60895 17100.00000 0 15829113.753 19626916.180 -4004918.425 10 0 60895 18000.00000 0 16149698.042 19763854.436 -801568.530 10 0 60895 18900.00000 0 16223313.125 19576693.137 2417310.999 10 0 60895 19800.00000 0 16008916.403 19103610.810 5589409.959 10 0 60895 20700.00000 0 15475399.974 18391810.723 8653380.202 10 0 60895 21600.00000 0 14603096.168 17495395.862 11550008.413 10 0 60895 22500.00000 0 13384815.946 16472976.897 14223344.431 10 0 60895 23400.00000 0 11826377.309 15385113.234 16621764.667 10 0 60895 24300.00000 0 9946601.771 14291693.608 18698951.712 10 0 60895 25200.00000 0 7776778.659 13249364.636 20414772.887 10 0 60895 26100.00000 0 5359618.542 12309113.501 21736042.389 10 0 60895 27000.00000 0 2747737.694 11514104.299 22637153.758 10 0 60895 27900.00000 0 1734.339 10897857.165 23100571.550 10 0 60895 28800.00000 0 -2812066.045 10482845.358 23117173.330 10 0 60895 29700.00000 0 -5624105.679 10279568.536 22686435.452 10 0 60895 30600.00000 0 -8364229.061 10286141.206 21816458.501 10 0 60895 31500.00000 0 -10964350.441 10488414.475 20523830.757 10 0 60895 32400.00000 0 -13361045.603 10860627.422 18833330.710 10 0 60895 33300.00000 0 -15497961.772 11366562.656 16777472.321 10 0 60895 34200.00000 0 -17327946.076 11961159.530 14395899.624 10 0 60895 35100.00000 0 -18814803.903 12592519.132 11734640.158 10 0 60895 36000.00000 0 -19934613.016 13204218.167 8845229.657 10 0 60895 36900.00000 0 -20676537.255 13737835.143 5783723.400 10 0 60895 37800.00000 0 -21043104.223 14135582.382 2609612.333 10 0 60895 38700.00000 0 -21049933.751 14342931.979 -615335.370 10 0 60895 39600.00000 0 -20724927.250 14311123.142 -3828284.455 10 0 60895 40500.00000 0 -20106951.230 13999442.650 -6966569.938 10 0 60895 41400.00000 0 -19244070.249 13377179.217 -9968936.105 10 0 60895 42300.00000 0 -18191404.267 12425166.190 -12776751.078 10 0 60895 43200.00000 0 -17008701.970 11136844.444 -15335171.227 10 0 60895 44100.00000 0 -15757734.098 9518798.038 -17594230.699 10 0 60895 45000.00000 0 -14499618.768 7590737.917 -19509832.916 10 0 60895 45900.00000 0 -13292193.678 5384932.948 -21044623.249 10 0 60895 46800.00000 0 -12187547.868 2945111.406 -22168724.826 10 0 60895 47700.00000 0 -11229818.542 324878.951 -22860322.597 10 0 60895 48600.00000 0 -10453346.585 -2414280.224 -23106084.310 10 0 60895 49500.00000 0 -9881268.629 -5205334.706 -22901410.651 10 0 60895 50400.00000 0 -9524604.305 -7978271.281 -22250510.585 10 0 60895 51300.00000 0 -9381875.844 -10662786.614 -21166301.596 10 0 60895 52200.00000 0 -9439274.188 -13190992.376 -19670138.139 10 0 60895 53100.00000 0 -9671362.395 -15500020.961 -17791375.075 10 0 60895 54000.00000 0 -10042284.328 -17534423.633 -15566776.037 10 0 60895 54900.00000 0 -10507425.366 -19248262.229 -13039779.629 10 0 60895 55800.00000 0 -11015453.002 -20606808.792 -10259639.003 10 0 60895 56700.00000 0 -11510649.614 -21587784.385 -7280452.598 10 0 60895 57600.00000 0 -11935437.799 -22182087.906 -4160105.706 10 0 60895 58500.00000 0 -12232991.153 -22393987.136 -959143.998 10 0 60895 59400.00000 0 -12349820.271 -22240766.773 2260398.868 10 0 60895 60300.00000 0 -12238225.415 -21751850.675 5436196.938 10 0 60895 61200.00000 0 -11858513.231 -20967437.149 8506828.156 10 0 60895 62100.00000 0 -11180885.248 -19936705.935 11412948.719 10 0 60895 63000.00000 0 -10186919.679 -18715672.798 14098424.026 10 0 60895 63900.00000 0 -8870585.138 -17364781.666 16511395.677 10 0 60895 64800.00000 0 -7238744.163 -15946334.506 18605265.570 10 0 60895 65700.00000 0 -5311125.313 -14521865.300 20339579.764 10 0 60895 66600.00000 0 -3119764.222 -13149566.358 21680796.651 10 0 60895 67500.00000 0 -707935.482 -11881872.756 22602926.082 10 0 60895 68400.00000 0 1871382.310 -10763304.087 23088028.204 10 0 60895 69300.00000 0 4557447.050 -9828652.203 23126563.012 10 0 60895 70200.00000 0 7284021.468 -9101589.640 22717583.956 10 0 60895 71100.00000 0 9981878.165 -8593756.430 21868771.348 10 0 60895 72000.00000 0 12581440.119 -8304363.726 20596303.796 10 0 60895 72900.00000 0 15015449.446 -8220331.645 18924568.553 10 0 60895 73800.00000 0 17221555.348 -8316956.907 16885714.336 10 0 60895 74700.00000 0 19144714.573 -8559083.910 14519053.071 10 0 60895 75600.00000 0 20739304.656 -8902731.744 11870319.921 10 0 60895 76500.00000 0 21970861.243 -9297110.203 8990803.864 10 0 60895 77400.00000 0 22817365.643 -9686940.911 5936364.124 10 0 60895 78300.00000 0 23270027.137 -10014985.990 2766350.428 10 0 60895 79200.00000 0 23333525.419 -10224677.117 -457552.343 10 0 60895 80100.00000 0 23025701.283 -10262732.555 -3672532.356 10 0 60895 81000.00000 0 22376707.257 -10081649.549 -6815887.426 10 0 60895 81900.00000 0 21427653.140 -9641964.035 -9826264.534 10 0 60895 82800.00000 0 20228803.420 -8914179.218 -12644876.177 10 0 60895 83700.00000 0 18837403.151 -7880278.421 -15216667.801 10 0 60895 84600.00000 0 17315225.141 -6534755.485 -17491411.544 10 0 60895 85500.00000 0 15725943.511 -4885116.819 -19424703.027 10 0 60896 0.00000 0 14132446.307 -2951832.252 -20978840.162 10 0 60896 900.00000 0 12594201.356 -767734.495 -22123566.543 10 0 60896 1800.00000 0 11164789.892 1623105.418 -22836662.381 10 0 60896 2700.00000 0 9889709.929 4166982.905 -23104374.226 10 0 60896 3600.00000 0 8804544.201 6802574.552 -22921673.416 10 0 60896 4500.00000 0 7933568.444 9463278.659 -22292339.965 10 0 60896 5400.00000 0 7288857.505 12079782.777 -21228871.277 10 0 60896 6300.00000 0 6869924.988 14582750.318 -19752218.827 10 0 60896 7200.00000 0 6663909.318 16905513.693 -17891359.413 10 0 60896 8100.00000 0 6646295.689 18986661.632 -15682710.776 10 0 60896 9000.00000 0 6782140.814 20772413.373 -13169404.372 10 0 60896 9900.00000 0 7027746.283 22218681.709 -10400430.700 10 0 60896 10800.00000 0 7332707.719 23292740.464 -7429674.912 10 0 60896 11700.00000 0 7642251.596 23974428.857 -4314862.254 10 0 60896 12600.00000 0 7899759.881 24256844.758 -1116434.440 10 0 60896 13500.00000 0 8049375.487 24146500.394 2103620.964 10 0 60896 14400.00000 0 8038578.574 23662936.360 5282965.552 10 0 60896 15300.00000 0 7820625.608 22837812.196 8360106.693 10 0 60896 16200.00000 0 7356749.213 21713513.233 11275573.388 10 0 60896 17100.00000 0 6618027.197 20341332.970 13973049.752 10 0 60896 18000.00000 0 5586843.083 18779307.375 16400445.558 10 0 60896 18900.00000 0 4257877.451 17089791.246 18510884.768 10 0 60896 19800.00000 0 2638588.709 15336876.882 20263594.667 10 0 60896 20700.00000 0 749162.701 13583761.336 21624680.030 10 0 60896 21600.00000 0 -1378067.823 11890170.285 22567768.858 10 0 60896 22500.00000 0 -3699711.537 10309944.007 23074518.335 10 0 60896 23400.00000 0 -6162871.678 8888884.341 23134971.882 10 0 60896 24300.00000 0 -8707102.226 7662950.919 22747760.541 10 0 60896 25200.00000 0 -11266688.829 6656880.934 21920144.295 10 0 60896 26100.00000 0 -13773162.645 5883289.691 20667891.450 10 0 60896 27000.00000 0 -16157945.293 5342289.778 19014996.805 10 0 60896 27900.00000 0 -18355017.043 5021645.583 16993242.054 10 0 60896 28800.00000 0 -20303498.567 4897457.954 14641604.741 10 0 60896 29700.00000 0 -21950039.229 4935351.691 12005524.950 10 0 60896 30600.00000 0 -23250911.942 5092117.371 9136041.894 10 0 60896 31500.00000 0 -24173725.988 5317739.517 6088815.527 10 0 60896 32400.00000 0 -24698684.440 5557726.141 2923051.047 10 0 60896 33300.00000 0 -24819331.519 5755641.248 -299653.279 10 0 60896 34200.00000 0 -24542756.434 5855732.346 -3516512.296 10 0 60896 35100.00000 0 -23889243.349 5805540.214 -6664789.789 10 0 60896 36000.00000 0 -22891380.850 5558378.190 -9683038.463 10 0 60896 36900.00000 0 -21592667.687 5075573.313 -12512318.035 10 0 60896 37800.00000 0 -20045673.541 4328371.561 -15097365.648 10 0 60896 38700.00000 0 -18309832.938 3299423.696 -17387693.745 10 0 60896 39600.00000 0 -16448966.488 1983786.326 -19338592.090 10 0 60896 40500.00000 0 -14528635.400 389393.820 -20912012.885 10 0 60896 41400.00000 0 -12613442.243 -1463020.359 -22077320.652 10 0 60896 42300.00000 0 -10764393.060 -3540550.456 -22811891.692 10 0 60896 43200.00000 0 -9036432.797 -5799267.238 -23101551.401 10 0 60896 44100.00000 0 -7476258.094 -8185840.375 -22940841.354 10 0 60896 45000.00000 0 -6120499.136 -10639565.686 -22333111.798 10 0 60896 45900.00000 0 -4994345.916 -13094711.543 -21290438.906 10 0 60896 46800.00000 0 -4110674.880 -15483085.485 -19833369.749 10 0 60896 47700.00000 0 -3469710.371 -17736713.017 -17990501.421 10 0 60896 48600.00000 0 -3059232.315 -19790516.426 -15797903.994 10 0 60896 49500.00000 0 -2855318.464 -21584881.785 -13298399.897 10 0 60896 50400.00000 0 -2823586.985 -23068007.559 -10540715.073 10 0 60896 51300.00000 0 -2920884.335 -24197937.846 -7578519.480 10 0 60896 52200.00000 0 -3097344.956 -24944196.871 -4469376.434 10 0 60896 53100.00000 0 -3298734.192 -25288958.395 -1273621.837 10 0 60896 54000.00000 0 -3468974.461 -25227703.264 1946804.686 10 0 60896 54900.00000 0 -3552747.660 -24769339.842 5129554.147 10 0 60896 55800.00000 0 -3498064.162 -23935784.276 8213065.257 10 0 60896 56700.00000 0 -3258690.685 -22761019.808 11137741.802 10 0 60896 57600.00000 0 -2796335.684 -21289675.621 13847088.660 10 0 60896 58500.00000 0 -2082501.271 -19575185.090 16288785.849 10 0 60896 59400.00000 0 -1099924.691 -17677600.184 18415681.453 10 0 60896 60300.00000 0 156450.647 -15661152.360 20186685.966 10 0 60896 61200.00000 0 1679015.315 -13591660.272 21567552.392 10 0 60896 62100.00000 0 3447565.094 -11533890.435 22531528.538 10 0 60896 63000.00000 0 5429901.755 -9548978.703 23059870.038 10 0 60896 63900.00000 0 7582940.339 -7692017.876 23142204.899 10 0 60896 64800.00000 0 9854279.418 -6009909.970 22776742.630 10 0 60896 65700.00000 0 12184171.892 -4539571.176 21970323.484 10 0 60896 66600.00000 0 14507817.321 -3306563.408 20738305.768 10 0 60896 67500.00000 0 16757883.213 -2324209.243 19104291.840 10 0 60896 68400.00000 0 18867152.753 -1593227.541 17099696.079 10 0 60896 69300.00000 0 20771190.324 -1101905.826 14763161.018 10 0 60896 70200.00000 0 22410914.597 -826803.356 12139830.672 10 0 60896 71100.00000 0 23734971.756 -733956.644 9280493.103 10 0 60896 72000.00000 0 24701808.764 -780537.860 6240607.198 10 0 60896 72900.00000 0 25281358.309 -916896.986 3079231.416 10 0 60896 73800.00000 0 25456262.726 -1088901.752 -142125.176 10 0 60896 74700.00000 0 25222583.225 -1240475.931 -3360707.006 10 0 60896 75600.00000 0 24589962.394 -1316227.420 -6513746.929 10 0 60896 76500.00000 0 23581231.283 -1264052.920 -9539706.586 10 0 60896 77400.00000 0 22231476.273 -1037606.494 -12379496.108 10 0 60896 78300.00000 0 20586604.378 -598524.717 -14977647.412 10 0 60896 79200.00000 0 18701467.443 81688.608 -17283416.156 10 0 60896 80100.00000 0 16637624.923 1020200.555 -19251788.935 10 0 60896 81000.00000 0 14460840.551 2221874.074 -20844374.560 10 0 60896 81900.00000 0 12238419.583 3678822.785 -22030160.956 10 0 60896 82800.00000 0 10036499.998 5370515.479 -22786122.272 10 0 60896 83700.00000 0 7917412.568 7264426.387 -23097664.353 10 0 60896 84600.00000 0 5937221.283 9317203.834 -22958900.274 10 0 60896 85500.00000 0 4143547.397 11476307.631 -22372751.404 10 0 60897 0.00000 0 2573767.781 13682045.508 -21350873.273 10 0 60897 900.00000 0 1253660.865 15869923.507 -19913408.410 10 0 60897 1800.00000 0 196556.912 17973208.048 -18088573.893 10 0 60897 2700.00000 0 -596977.213 19925595.748 -15912091.283 10 0 60897 3600.00000 0 -1138906.456 21663876.055 -13426472.730 10 0 60897 4500.00000 0 -1452962.963 23130476.655 -10680177.933 10 0 60897 5400.00000 0 -1573383.559 24275785.612 -7726659.576 10 0 60897 6300.00000 0 -1543205.254 25060154.267 -4623316.607 10 0 60897 7200.00000 0 -1412192.879 25455498.548 -1430376.364 10 0 60897 8100.00000 0 -1234487.894 25446433.559 1790272.478 10 0 60897 9000.00000 0 -1066078.466 25030895.861 4976273.531 10 0 60897 9900.00000 0 -962197.849 24220229.277 8066000.140 10 0 60897 10800.00000 0 -974760.443 23038732.246 10999734.186 10 0 60897 11700.00000 0 -1149942.823 21522686.807 13720804.577 10 0 60897 12600.00000 0 -1526010.589 19718910.386 16176664.741 10 0 60897 13500.00000 0 -2131481.418 17682890.803 18319889.892 10 0 60897 14400.00000 0 -2983700.650 15476581.512 20109076.541 10 0 60897 15300.00000 0 -4087888.757 13165947.652 21509628.476 10 0 60897 16200.00000 0 -5436700.787 10818363.203 22494415.560 10 0 60897 17100.00000 0 -7010317.094 8499965.360 23044293.774 10 0 60897 18000.00000 0 -8777063.137 6273073.915 23148477.163 10 0 60897 18900.00000 0 -10694534.662 4193780.738 22804754.668 10 0 60897 19800.00000 0 -12711184.091 2309807.780 22019547.214 10 0 60897 20700.00000 0 -14768304.827 658721.372 20807802.910 10 0 60897 21600.00000 0 -16802333.734 -733423.564 19192730.843 10 0 60897 22500.00000 0 -18747378.385 -1852952.987 17205376.633 10 0 60897 23400.00000 0 -20537865.650 -2698920.139 14884045.767 10 0 60897 24300.00000 0 -22111202.347 -3282913.486 12273583.645 10 0 60897 25200.00000 0 -23410337.107 -3628333.156 9424524.211 10 0 60897 26100.00000 0 -24386115.713 -3769165.117 6392122.002 10 0 60897 27000.00000 0 -24999329.844 -3748303.798 3235285.250 10 0 60897 27900.00000 0 -25222371.301 -3615493.430 15430.229 10 0 60897 28800.00000 0 -25040419.766 -3424975.211 -3204720.675 10 0 60897 29700.00000 0 -24452111.706 -3232940.611 -6362372.957 10 0 60897 30600.00000 0 -23469659.891 -3094900.145 -9395900.640 10 0 60897 31500.00000 0 -22118416.634 -3063081.125 -12246067.563 10 0 60897 32400.00000 0 -20435897.853 -3183967.125 -14857203.482 10 0 60897 33300.00000 0 -18470308.457 -3496086.047 -17178310.012 10 0 60897 34200.00000 0 -16278631.253 -4028143.031 -19164072.921 10 0 60897 35100.00000 0 -13924360.449 -4797579.543 -20775759.481 10 0 60897 36000.00000 0 -11474976.106 -5809621.393 -21981982.280 10 0 60897 36900.00000 0 -8999266.884 -7056857.164 -22759313.966 10 0 60897 37800.00000 0 -6564614.586 -8519365.468 -23092740.859 10 0 60897 38700.00000 0 -4234355.177 -10165385.765 -22975946.980 10 0 60897 39600.00000 0 -2065327.213 -11952504.021 -22411423.747 10 0 60897 40500.00000 0 -105709.984 -13829302.570 -21410404.325 10 0 60897 41400.00000 0 1606759.200 -15737403.869 -19992625.238 10 0 60897 42300.00000 0 3046115.698 -17613821.309 -18185921.324 10 0 60897 43200.00000 0 4198992.914 -19393517.563 -16025663.401 10 0 60897 44100.00000 0 5064910.734 -21012062.604 -13554051.001 10 0 60897 45000.00000 0 5656018.101 -22408279.714 -10819275.218 10 0 60897 45900.00000 0 5996303.872 -23526768.804 -7874569.113 10 0 60897 46800.00000 0 6120312.249 -24320202.033 -4777164.961 10 0 60897 47700.00000 0 6071419.548 -24751296.579 -1587179.296 10 0 60897 48600.00000 0 5899747.081 -24794383.389 1633552.301 10 0 60897 49500.00000 0 5659799.551 -24436507.826 4822668.124 10 0 60897 50400.00000 0 5407929.299 -23678017.763 7918478.131 10 0 60897 51300.00000 0 5199733.344 -22532616.050 10861144.209 10 0 60897 52200.00000 0 5087492.399 -21026876.265 13593821.124 10 0 60897 53100.00000 0 5117758.756 -19199242.692 16063737.430 10 0 60897 54000.00000 0 5329193.425 -17098556.291 18223197.075 10 0 60897 54900.00000 0 5750742.305 -14782167.514 20030484.029 10 0 60897 55800.00000 0 6400227.145 -12313713.319 21450654.127 10 0 60897 56700.00000 0 7283410.003 -9760649.088 22456200.334 10 0 60897 57600.00000 0 8393570.687 -7191635.794 23027579.795 10 0 60897 58500.00000 0 9711615.816 -4673888.604 23153593.177 10 0 60897 59400.00000 0 11206716.631 -2270594.619 22831609.199 10 0 60897 60300.00000 0 12837451.182 -38504.811 22067629.587 10 0 60897 61200.00000 0 14553405.853 1974201.462 20876192.167 10 0 60897 62100.00000 0 16297172.183 3729691.764 19280112.473 10 0 60897 63000.00000 0 18006658.280 5201822.311 17310066.867 10 0 60897 63900.00000 0 19617620.517 6376990.069 15004023.077 10 0 60897 64800.00000 0 21066311.250 7254459.004 12406526.934 10 0 60897 65700.00000 0 22292132.528 7846145.884 9567857.029 10 0 60897 66600.00000 0 23240184.423 8175873.439 6543062.023 10 0 60897 67500.00000 0 23863600.051 8278121.311 3390898.091 10 0 60897 68400.00000 0 24125567.409 8196326.686 172686.583 10 0 60897 69300.00000 0 24000950.625 7980806.112 -3048885.687 10 0 60897 70200.00000 0 23477439.785 7686386.793 -6210999.423 10 0 60897 71100.00000 0 22556178.238 7369848.650 -9251943.717 10 0 60897 72000.00000 0 21251838.594 7087287.173 -12112338.820 10 0 60897 72900.00000 0 19592142.376 6891510.942 -14736314.977 10 0 60897 73800.00000 0 17616842.287 6829586.495 -17072622.312 10 0 60897 74700.00000 0 15376209.470 6940637.030 -19075648.171 10 0 60897 75600.00000 0 12929089.505 7253990.383 -20706320.535 10 0 60897 76500.00000 0 10340609.486 7787756.552 -21932878.755 10 0 60897 77400.00000 0 7679633.462 8547896.231 -22731495.891 10 0 60897 78300.00000 0 5016074.014 9527820.428 -23086740.440 10 0 60897 79200.00000 0 2418173.534 10708538.198 -22991868.801 10 0 60897 80100.00000 0 -50130.425 12059345.815 -22448943.544 10 0 60897 81000.00000 0 -2331645.486 13539027.498 -21468776.298 10 0 60897 81900.00000 0 -4378069.130 15097516.047 -20070697.673 10 0 60897 82800.00000 0 -6151749.367 16677942.256 -18282160.160 10 0 60897 83700.00000 0 -7626989.872 18218985.813 -16138183.196 10 0 60897 84600.00000 0 -8790847.591 19657427.938 -13680652.619 10 0 60897 85500.00000 0 -9643392.509 20930797.901 -10957489.447 99